カタログに戻る

FENGYUN 1C DEB

運用中SSO
NORAD 31188·DEBRIS·🇨🇳 China

打ち上げ May 10, 1999 から Taiyuan Satellite Launch Center

Loading…

次のパス (今後24時間)

TLE

最新Source: Space-Track

元期: Sep 12, 2026, 10:21 UTC

1 31188U 99025BJS 26255.43171962  .00001771  00000-0  75604-3 0  9990
2 31188  98.7309 326.8880 0059665 175.6294 319.6579 14.25346641  2186

AllMySatでFENGYUN 1C DEBをリアルタイム追跡

Download on the App Store